Погода в Ашхабаде

Погода в Ашхабаде : погода сейчас, прогноз погоды и архив. Всё, что Вы хотите узнать о погоде в Ашхабаде!

Поиск расширенной информации на нашем сайте:

Другие новости

Новости СМИ2

Главная страница сайта

Новости сайта

02.10.2013

Напоминаем, что на нашем новом сайте вы можете получить высокодетализированные прогнозы погоды по пунктам России, СНГ и мира (включающие важные для авиации метеовеличины, такие как направление и скорость ветра, видимость, явления погоды, количество и форма облачности, нижняя и верхняя граница облачности), а также ознакомиться с разнообразными материалами по авиационной метеорологии и подборкой полезных ссылок на эту тему.

Сайт Метеоцентр.Азия посвящён разработке технологий оптимизации авиаметеорологического обслуживания, включая проектирование и перспективное создание нескольких автоматизированных авиаметеорологических систем:
- система выпуска высокодетальных прогностических карт явлений погоды для нижнего воздушного пространства по России и ближнему зарубежью;
- система верификации прогнозов TAF (выпускаемых синоптиками официальных АМСГ РФ и ближнего зарубежья) и AUTOTAF (выпускаемых сайтом Метеоцентр.Азия) - выявление ошибок, онлайн-сопоставление с фактической погодой METAR, автоматическое внесение коррективов в прогнозы при резком отклонении фактической погоды от прогноза, подсчёт оправдываемости прогнозов по элементам и в целом;
- система обработки, анализа и отображения авиаметеорологической информации для применения провайдерами метеорологической информации.

Рекомендуем: вред курения

Погода в Ашхабаде - сегодня

Время (UTC), дата Ветер
(°,м/с) 
Видим.   Явления Облачность Т
(°С)
Тd
(°С)
f(%) Тe
(°С)
Pmin
(гПа)
dP
(гПа)
Po
(мм)
O2
(г/м3)
Тmin Tmax R s Состояние
почвы
18 26.05.17 220 (ЮЗ) 10 км    ясно 
+26.8 +12.5 41 +32  1012.6  742  270    +31.6       
21 26.05.17 тихо ()   10 км    ясно 
+25 +13.2 48 +31  1011.5  -1.2  741  271           
00 27.05.17 260 (З) 10 км    ясно 
+22.6 +12.8 54 +28  1011.4  -0.3  741  273           
03 27.05.17 тихо ()   10 км    ясно 
+25.2 +14.7 52 +34  1011.8  0.6  741  270           
06 27.05.17 330 (СЗ) 10 км    ясно 
+29.4 +14.2 39 +37  1011.1  -0.4  741  267  +22.1         
09 27.05.17 060 (СВ) 10 км    3/3 1500 м 
[Cu hum]
+33.6 +11.2 26 +37  1009.2  -1.5  740  263           
12 27.05.17 070 (В) 10 км    3/3 1500 м 
[Cu hum]
+35.2 +12.1 25 +40  1007.1  -2  738  261           
15 27.05.17 120 (ЮВ) 10 км    3/3 1500 м 
[Sc]
+34.4 +9.5 22 +35  1006.6  -0.5  738  262    +36.2       
18 27.05.17 тихо ()   10 км    ясно 
+29.4 +11.2 32 +33  1007.5  0.5  738  266    +36.2       
21 27.05.17 270 (З) 10 км    ясно 
+27.6 +14.7 45 +36  1006.1  -1.4  737  267           
00 28.05.17 210 (ЮЗ) 10 км    ясно 
+24.2 +13.2 50 +30  1006.6  0.2  737  270           
03 28.05.17 290 (З) 10 км    ясно 
+27 +11.4 38 +30  1006.3  -0.1  737  268           
06 28.05.17 310 (СЗ) 10 км    ясно 
+28.3 +12 36 +33  1006.9  0.7  738  267  +23         
09 28.05.17 300 (СЗ) 10 км    3/3 1500 м 
[Cu med, cong]
+34.3 +13.7 29 +41  1006.6  0.1  738  261           
12 28.05.17 300 (СЗ) 10 км    3/3 1500 м 
[Cu med, cong]
+35.8 +12 24 +40  1005.7  -0.8  737  260           
15 28.05.17 310 (СЗ) 10 км    3/0 верхняя 
[Ci fib]
+34.2 +13.9 30 +41  1006.6  0.8  738  261    +36.5       
18 28.05.17 290 (З) 10 км    ясно 
+29.2 +15.2 43 +39  1009.1  739  266    +36.5       
21 28.05.17 290 (З) 10 км    4/0 верхняя 
[Ci fib]
+25.4 +14.4 51 +33  1009.8  0.4  740  270           
00 29.05.17 280 (З) 10 км    3/0 верхняя 
[Ci fib]
+23.2 +13.2 53 +29  1011.5  1.6  741  272           
03 29.05.17 290 (З) 10 км    4/0 верхняя 
[Ci fib]
+21.8 +13.1 58 +28  1014.2  2.4  743  274           
06 29.05.17 300 (СЗ) 10 км    ясно 
+25 +12.9 47 +30  1014.9  1.1  743  272  +21.6         
09 29.05.17 330 (СЗ) 10 км    3/0 средняя 
[Ac trans]
+31.2 +12 31 +35  1014.7  0.2  743  267           
12 29.05.17 320 (СЗ) 10 км    4/0 средняя 
[Ac trans]
+32.4 +7.8 22 +32  1014.3  -0.3  743  266    +5.1       
15 29.05.17 320 (СЗ) 10 км    4/0 средняя 
[Ac trans]
+30.5 +8.6 26 +31  1015.6  1.1  744  268    +33.5       
18 29.05.17 280 (З) 10 км    6/0 средняя 
[Ac trans]
+27 +11.4 38 +30  1018.3  2.4  746  271    +33.5       
Время (UTC), дата Ветер
(°,м/с) 
Видим.   Явления Облачность Т
(°С)
Тd
(°С)
f(%) Тe
(°С)
Pmin
(гПа)
dP
(гПа)
Po
(мм)
O2
(г/м3)
Тmin Tmax R s Состояние
почвы

Для получения пояснительной информации подведите курсор к названию столбца.

ПОГОДА в Ашхабаде - архив

Всё, что Вы хотите узнать о погоде в Ашхабаде - удобно и подробно!

Выберите нужную дату (начиная с 1 января 2015* года) и нажмите кнопку "Найти".
Будут отображены архивные сводки погоды по пункту Ашхабад, начиная с указанной даты.


Отображать данные в формате CSV (для использования в таблицах Excel)


Внимание! Наш архив погоды предназначен исключительно для личного некоммерческого использования в познавательных целях. Если Вам необходимы официальные справки о состоянии погоды (для производственных, юридических, коммерческих и т.п. целей), обращайтесь в органы Росгидромета.

*Примечание: данная дата относится к архиву по метеостанциям СССР (Россия, СНГ, Балтия).
Архив по метеостанциям Зарубежной Европы и Азии (кроме Китая) хранится 10 дней, по другим регионам земного шара (Китай, Африка, Америка, Австралия, Океания) - 1 день.

Ашхабад - район местоположения метеостанции


Название, широта, долгота, высота метеостанции:
Ашхабад (город) 38°ш. 58.3°д. 208 м над ур. моря [Туркменистан]

Дополнительная информация

В oтличие oт бoльшинства пoгoдных сайтoв мы публикуем пoдрoбную метеoинфoрмацию в детальнoм прoфессиoнальнoм фoрмате.

Характеристики температуры и влажнoсти вoздуха измеряются на высoте 2 м в тени вдали oт зданий и деревьев.
Скoрoсть ветра измеряется на высoте 10 м (на урoвне рoста челoвека скoрoсть ветра ниже в 1.5-2 раза). Если метеoстанция нахoдится в гoрoде или в лесу, тo скoрoсть ветра занижена на 2-4 м/с пo сравнению с oткрытым местoм. Скoрoсть ветра над акватoриями крупных рек и oзёр, а также на вершинах хoлмoв на 2-5 м/с выше, чем в oбычных услoвиях.
Атмoсфернoе давление в разных тoчках местнoсти мoжет значительнo oтличаться oт давления на метеoстанции, в зависимoсти oт услoвий рельефа (при пoдъёме на 10 м давление пoнижается примернo на 1 мм рт.ст.).